CAPE
813 485 656 345 226 231 69 38 120 66 156 105 143 83 27 19 0 0 16 22 62 62 176 508 1072 1119 1013 1444 1961 2190 2422 2348 2736 2936 2996 2886 2306 2502 2770 2336 1995 1906 1778 1750 1710 1699 1570 1518 1422
475 755 254 318 270 55 80 80 124 53 171 48 9 9 1 7 0 4 54 81 82 142 270 453 1290 1462 978 1230 1905 2133 1761 1854 2571 2970 2939 2660 2079 2415 2046 1939 1876 1705 1654 1603 1563 1543 1566 1483 1461
532 896 13 149 205 127 209 126 59 117 137 72 25 0 0 0 25 35 21 57 86 255 323 785 1378 1916 1306 1245 1689 1978 2092 1714 2058 2539 2530 2142 1762 1877 1890 1831 1655 1576 1553 1525 1506 1444 1334 1288 1286
567 1249 886 699 71 184 180 134 185 179 214 193 168 37 4 30 46 110 203 130 78 246 754 1550 1559 1649 1824 1632 1733 1477 1584 1660 2216 2606 2230 1802 1619 1785 1668 1618 1489 1486 1635 1649 1704 1548 1456 1390 1283
951 583 507 700 111 166 170 143 99 124 344 167 233 140 156 111 118 132 108 76 159 350 916 1217 2108 1911 2289 1857 1795 1853 1570 1506 2361 2443 1876 1784 1661 1749 1518 1385 1349 1532 1720 1844 1746 1428 1242 1384 1444
941 615 603 339 128 204 99 158 200 160 366 273 263 259 180 233 235 276 238 198 205 381 719 1083 1959 2070 2147 1900 1965 2065 1622 1609 2215 2334 2016 2228 1999 1876 1800 1263 1354 1547 1708 1654 1674 1449 1256 1283 1426
1007 373 391 259 168 188 164 94 197 209 212 316 299 294 329 331 329 323 348 414 502 418 625 1140 1508 1815 2222 2725 2127 1976 1715 1674 1881 1996 2095 2129 1790 1587 1483 1653 1520 1430 1521 1596 1610 1790 1608 1604 1950
450 297 220 92 36 207 165 12 82 182 282 357 545 531 405 460 483 564 511 620 577 713 863 1118 1458 1715 1779 1849 2075 1720 1881 1801 1642 1613 1661 1838 1728 1637 1494 1892 1979 1336 1278 1470 1717 2335 2468 1891 1899
14 56 62 41 5 39 39 16 159 329 326 275 284 544 515 479 472 645 645 690 884 903 1052 1131 1372 1485 1304 1235 1448 2093 1879 2010 1633 1593 1919 2010 1665 1311 1411 1788 1983 1518 1514 1835 1894 2246 2465 1917 1411
39 0 3 68 63 40 133 85 124 283 227 189 360 544 566 517 438 526 632 612 810 850 1074 1173 1079 992 977 1046 1180 1260 1286 1366 1302 1470 1453 1702 1387 1011 1105 1451 1755 1740 1948 1190 2558 2207 1997 1508 1155
29 31 19 36 11 1 18 35 1 234 378 260 340 376 551 604 486 481 483 552 544 632 888 1199 1302 1079 700 578 838 1149 1193 1118 1045 1165 1313 1329 1409 1521 1250 731 825 1037 1020 1283 1636 1334 896 1608 1240
34 34 10 11 13 25 13 8 0 0 247 438 360 426 523 407 388 470 593 634 376 711 586 704 636 1191 609 696 704 1199 1195 1047 962 1150 1707 1716 1614 1284 1089 1152 873 1179 1548 1162 727 1322 1163 1718 1792
0 2 7 24 36 4 0 4 39 27 445 353 269 146 445 259 508 623 714 962 678 715 828 718 539 828 1090 1082 737 1196 1271 1252 1181 1521 1627 1041 1216 929 1621 1423 1665 1234 1675 1279 971 915 1353 1721 1500
10 23 13 2 68 4 33 0 8 88 369 376 310 193 223 270 617 676 657 944 785 983 800 1012 760 1171 996 1442 1615 2099 1402 1184 1242 1430 1342 1248 1379 1042 1443 1699 1865 1327 950 1255 1377 1421 1450 1738 1262
0 8 53 26 75 55 8 11 13 88 339 451 430 367 305 187 59 180 824 751 590 468 550 1132 1117 1597 1524 1428 1806 1404 1487 869 875 994 1634 1395 1475 1261 1293 1303 1344 1641 1430 1472 1026 1143 1300 1230 945
0 0 0 3 15 44 6 13 0 16 275 349 387 389 357 279 133 137 439 775 481 474 1084 1103 1125 993 1053 1349 1962 1229 992 812 977 1255 1219 1753 1932 1590 1424 1535 1464 1893 1266 1039 892 1059 489 221 35
0 0 2 15 11 1 42 26 0 26 111 207 224 209 248 245 158 169 417 590 520 490 920 807 1155 1004 1038 1552 2101 1407 1255 1576 1470 1335 1392 1241 1983 1899 1914 1741 1518 1633 1429 1340 1085 847 419 137 0
0 0 0 0 14 31 10 21 35 95 10 48 150 97 106 96 134 240 359 465 718 532 931 926 940 1275 1283 1842 1675 1704 1456 1703 1941 1381 1041 2043 1594 2092 1488 1687 1835 1310 1349 953 875 686 333 4 4
0 0 0 2 25 29 68 14 42 28 84 0 36 42 74 55 63 160 171 482 645 850 1059 864 1196 1696 1488 1678 1757 1889 1875 1571 1549 1767 1737 1648 1500 1454 1544 1670 1700 1532 1289 739 581 192 0 0 15
0 0 0 33 56 18 21 23 0 0 47 20 8 1 25 46 26 147 166 255 481 747 1172 875 1182 2161 1541 1668 1616 1570 1532 1449 1310 1336 2003 1730 1677 1624 1498 1538 1394 1221 969 685 327 121 1 2 5
0 0 0 29 9 5 0 3 19 35 190 137 22 0 9 41 48 112 151 248 369 582 1114 1176 1483 2079 1817 2015 1671 1406 1598 1518 1615 1844 1840 1670 1623 1855 1948 1881 1181 1117 896 646 378 43 0 0 0
0 0 0 1 0 1 5 94 19 120 171 146 48 40 10 16 40 72 233 328 376 724 1166 1233 1657 2146 1906 1777 1539 1434 1131 1715 1659 1684 1688 1701 1789 1803 1640 1514 1010 1327 984 766 158 0 2 0 3
0 0 0 0 17 30 11 0 182 130 180 96 41 76 35 24 44 86 248 278 432 740 1035 1576 1469 2343 1517 1731 1800 1071 1346 1354 1574 1150 1574 1681 1753 1731 1485 1733 1336 1122 803 387 16 1 23 41 59
0 0 0 0 0 25 0 4 13 23 165 199 228 111 89 71 61 63 128 382 348 816 1233 1623 1571 1813 1922 1267 1571 2090 2097 1104 676 1475 1350 1609 1103 1533 1554 1453 1354 1010 441 365 37 56 6 44 50
0 0 0 0 0 0 1 0 10 68 4 262 291 155 55 30 51 69 148 351 459 603 1456 1643 1699 1691 2174 1863 1733 1939 2429 1628 1524 1573 1211 1024 660 734 1650 970 1331 827 394 117 50 29 17 9 31
0 0 0 0 0 0 0 6 24 20 48 143 103 132 22 93 86 79 99 210 561 586 1214 1824 1913 1849 2115 2192 1891 1786 1989 2621 1817 1776 1999 1286 1114 919 978 1404 1266 868 697 159 252 126 180 76 5
0 0 0 0 0 0 0 0 0 4 100 48 62 18 19 41 244 163 87 99 542 603 1231 1618 2121 2053 2308 2362 2262 2125 1867 2051 2808 2508 1622 1820 1262 935 646 1597 1381 972 710 510 351 123 34 101 25
0 0 0 0 0 0 0 0 0 44 65 49 31 56 9 14 44 136 163 124 598 704 872 1526 2474 2356 2487 2386 2625 2641 2516 2242 2361 2953 2405 1756 1796 1518 862 1496 1447 1166 928 542 311 244 258 238 200
0 0 0 0 0 0 0 0 0 31 156 57 81 72 31 1 36 214 309 217 587 818 939 1155 2415 2574 2686 2674 2587 2773 2893 2828 2529 2452 2650 2092 1641 1733 1375 1450 1438 1205 980 598 522 259 309 415 63
0 0 0 0 0 0 0 0 0 44 138 76 82 57 47 23 81 219 327 459 359 963 1028 1234 2572 2619 2908 2929 3017 2944 2943 3252 3158 2634 2316 2199 2166 1705 1394 1397 1421 1205 1065 812 600 423 307 166 380
CIN
-80 -41 -29 -20 -9 -2 -45 -25 -38 -27 -55 -99 -59 -111 -152 -105 -0 -0 -2 -10 -11 -15 -5 -1 -0 -0 -0 -0 -0 -0 -0 -0 -0 -0 -0 -0 -0 -0 -0 -0 -0 -0 -0 -0 -0 -0 -0 -0 -7
-123 -35 -67 -27 -6 -33 -40 -63 -59 -37 -58 -97 -135 -183 -89 -9 -0 -0 -45 -31 -18 -8 -1 -2 -0 -0 -0 -0 -0 -0 -0 -0 -0 -0 -0 -0 -0 -0 -0 -0 -0 -0 -0 -0 -0 -0 -0 -3 -10
-98 -21 -24 -58 -112 -15 -22 -39 -5 -21 -56 -74 -117 -23 -0 -0 -83 -76 -46 -32 -36 -5 -6 -1 -0 -0 -0 -0 -0 -0 -0 -0 -0 -0 -0 -0 -0 -0 -0 -0 -0 -0 -0 -0 -0 -2 -10 -15 -17
-43 -2 -8 -14 -32 -24 -59 -29 -8 -7 -20 -50 -78 -95 -37 -92 -139 -54 -9 -12 -48 -21 -9 -0 -0 -0 -0 -0 -0 -0 -0 -0 -0 -0 -0 -0 -3 -0 -5 -7 -7 -4 -0 -0 -0 -1 -8 -12 -18
-3 -40 -18 -47 -41 -39 -25 -17 -34 -50 -43 -61 -89 -54 -36 -41 -58 -42 -48 -45 -48 -28 -9 -1 -0 -0 -0 -0 -0 -0 -0 -1 -0 -0 -0 -1 -6 -3 -12 -16 -16 -5 -1 -0 -0 -8 -23 -22 -27
-21 -80 -58 -43 -43 -30 -30 -58 -38 -57 -67 -49 -79 -53 -13 -22 -40 -25 -26 -30 -43 -51 -29 -12 -0 -0 -0 -0 -0 -0 -0 -2 -0 -0 -0 -0 -5 -10 -8 -28 -22 -17 -15 -16 -16 -26 -38 -40 -41
-57 -23 -93 -50 -57 -68 -19 -48 -31 -58 -66 -75 -75 -49 -4 -21 -30 -43 -23 -30 -21 -52 -46 -10 -0 -0 -0 -0 -0 -0 -2 -1 -0 -2 -3 -5 -15 -19 -24 -20 -27 -33 -30 -31 -33 -30 -30 -16 -12
-2 -14 -153 -34 -2 -48 -26 -7 -77 -63 -32 -59 -117 -63 -24 -14 -29 -13 -12 -14 -52 -57 -49 -13 -1 -1 -1 -1 -0 -3 -0 -2 -18 -27 -31 -29 -27 -30 -36 -29 -30 -40 -42 -28 -20 -9 -14 -28 -28
-4 -33 -203 -151 -3 -14 -19 -36 -20 -24 -79 -50 -42 -89 -84 -42 -31 -14 -2 -0 -19 -49 -45 -21 -7 -5 -21 -24 -16 -1 -1 -4 -30 -43 -32 -33 -45 -71 -55 -40 -29 -36 -56 -36 -28 -25 -31 -49 -91
-26 -2 -3 -26 -17 -3 -22 -15 -45 -42 -49 -48 -25 -20 -41 -26 -33 -17 -22 -5 -26 -49 -40 -34 -37 -50 -56 -50 -45 -45 -55 -58 -67 -69 -64 -62 -56 -46 -20 -24 -22 -21 -40 -46 -25 -35 -56 -65 -121
-64 -233 -72 -54 -25 -6 -7 -7 -1 -32 -30 -41 -51 -18 -28 -19 -24 -34 -38 -25 -50 -55 -49 -41 -39 -59 -83 -76 -103 -94 -93 -95 -106 -109 -95 -18 -62 -14 -25 -162 -163 -47 -35 -138 -92 -63 -140 -81 -43
-46 -290 -137 -22 -62 -36 -11 -45 -0 -0 -23 -46 -73 -61 -31 -19 -50 -55 -43 -37 -65 -32 -54 -56 -52 -31 -84 -93 -125 -96 -93 -117 -125 -108 -70 -41 -32 -24 -43 -47 -25 -20 -140 -21 -100 -60 -40 -20 -25
-0 -9 -5 -22 -21 -1 -0 -9 -20 -12 -33 -37 -49 -39 -15 -18 -60 -62 -60 -36 -68 -62 -40 -72 -72 -77 -63 -67 -97 -71 -54 -82 -67 -56 -37 -52 -44 -12 -32 -19 -32 -14 -37 -30 -15 -23 -22 -17 -32
-97 -22 -28 -7 -77 -30 -3 -0 -17 -30 -52 -32 -60 -57 -24 -4 -34 -41 -63 -49 -78 -37 -52 -59 -66 -83 -33 -41 -31 -35 -26 -16 -59 -45 -88 -67 -23 -58 -47 -34 -31 -27 -39 -64 -12 -17 -26 -42 -46
-0 -46 -30 -9 -20 -16 -1 -2 -3 -25 -51 -64 -67 -61 -45 -32 -40 -18 -78 -96 -40 -80 -86 -68 -67 -37 -39 -23 -28 -39 -53 -21 -25 -33 -63 -59 -53 -23 -51 -37 -41 -35 -45 -30 -49 -49 -41 -64 -82
-0 -0 -0 -0 -2 -5 -12 -46 -0 -41 -56 -54 -71 -57 -59 -48 -44 -33 -44 -84 -130 -81 -88 -92 -59 -85 -85 -59 -37 -45 -43 -25 -31 -50 -54 -88 -81 -72 -12 -32 -26 -23 -64 -12 -38 -38 -39 -128 -104
-0 -0 -3 -3 -18 -1 -34 -112 -0 -71 -46 -51 -56 -59 -51 -35 -40 -55 -66 -83 -134 -107 -91 -106 -73 -119 -123 -83 -35 -52 -55 -56 -27 -38 -54 -18 -36 -69 -36 -36 -32 -55 -38 -36 -33 -37 -69 -83 -0
-0 -0 -0 -0 -21 -86 -98 -153 -78 -46 -33 -84 -66 -69 -66 -84 -56 -68 -68 -101 -112 -129 -100 -101 -112 -137 -128 -58 -48 -37 -34 -31 -28 -5 -4 -114 -33 -62 -46 -37 -32 -21 -20 -10 -9 -22 -85 -171 -230
-0 -0 -0 -11 -44 -134 -183 -25 -15 -44 -62 -0 -143 -142 -140 -149 -111 -79 -92 -72 -90 -129 -119 -125 -95 -108 -121 -82 -48 -16 -7 -22 -37 -31 -76 -96 -77 -20 -29 -33 -34 -46 -9 -33 -89 -116 -1 -0 -77
-0 -0 -0 -86 -7 -41 -183 -95 -0 -0 -115 -173 -270 -46 -196 -183 -179 -121 -125 -113 -99 -137 -139 -173 -138 -73 -105 -91 -55 -22 -18 -31 -62 -83 -47 -35 -89 -49 -48 -36 -28 -17 -30 -77 -81 -129 -236 -20 -130
-0 -0 -0 -60 -42 -8 -0 -105 -122 -42 -21 -58 -146 -0 -220 -222 -222 -193 -192 -156 -126 -151 -171 -155 -141 -85 -82 -52 -42 -42 -67 -58 -54 -43 -53 -51 -101 -60 -28 -39 -36 -64 -49 -64 -69 -68 -0 -0 -0
-0 -0 -0 -39 -0 -25 -12 -67 -75 -31 -30 -51 -101 -50 -126 -144 -260 -264 -215 -183 -172 -170 -161 -167 -132 -86 -47 -52 -37 -37 -54 -6 -17 -25 -42 -26 -82 -53 -57 -27 -47 -29 -67 -58 -148 -0 -32 -0 -106
-0 -0 -0 -0 -33 -14 -12 -2 -54 -34 -102 -32 -30 -24 -75 -89 -117 -244 -233 -241 -191 -210 -212 -177 -147 -81 -102 -46 -47 -100 -53 -23 -6 -33 -36 -72 -38 -31 -27 -41 -43 -53 -108 -154 -187 -49 -267 -231 -223
-0 -0 -0 -0 -0 -27 -0 -4 -26 -15 -75 -7 -5 -46 -60 -114 -102 -115 -226 -222 -235 -245 -234 -203 -176 -122 -105 -130 -102 -26 -11 -57 -104 -83 -68 -38 -55 -54 -61 -63 -66 -69 -108 -116 -304 -277 -281 -273 -180
-0 -0 -0 -0 -0 -0 -19 -3 -133 -27 -65 -65 -33 -25 -36 -80 -103 -70 -166 -235 -250 -265 -242 -258 -221 -185 -110 -117 -134 -84 -27 -30 -49 -59 -116 -111 -193 -72 -47 -138 -92 -97 -125 -196 -280 -235 -261 -261 -214
-0 -0 -0 -0 -0 -0 -0 -31 -235 -48 -59 -48 -28 -31 -30 -80 -81 -65 -49 -213 -255 -264 -286 -279 -265 -222 -163 -133 -150 -140 -81 -34 -53 -63 -40 -45 -64 -55 -119 -124 -105 -107 -116 -271 -224 -216 -216 -243 -204
-0 -0 -0 -0 -0 -0 -0 -0 -0 -21 -75 -36 -42 -41 -33 -40 -31 -26 -43 -192 -245 -261 -307 -310 -314 -263 -197 -163 -146 -136 -140 -86 -30 -21 -41 -43 -73 -119 -226 -99 -129 -149 -124 -198 -235 -255 -309 -227 -218
-0 -0 -0 -0 -0 -0 -0 -0 -0 -89 -68 -46 -36 -24 -30 -58 -63 -48 -28 -70 -256 -293 -320 -321 -327 -330 -258 -209 -143 -122 -118 -108 -76 -20 -19 -79 -41 -93 -140 -173 -142 -123 -119 -210 -231 -227 -224 -203 -195
-0 -0 -0 -0 -0 -0 -0 -0 -0 -54 -49 -35 -26 -86 -178 -27 -106 -61 -83 -61 -257 -276 -305 -344 -333 -301 -250 -217 -186 -142 -108 -92 -93 -71 -24 -65 -53 -57 -85 -184 -154 -131 -155 -221 -202 -227 -208 -162 -219
-0 -0 -0 -0 -0 -0 -0 -0 -0 -108 -95 -34 -38 -30 -143 -170 -155 -81 -55 -112 -218 -287 -322 -358 -341 -312 -274 -231 -172 -162 -137 -75 -66 -104 -108 -72 -56 -99 -108 -79 -166 -170 -185 -189 -206 -195 -206 -235 -145
Wind_Speed
12 9 20 9 15 17 nan nan 2 nan 7 2 4 nan nan nan nan nan nan nan nan nan 14 11 7 3 2 1 3 3 2 3 2 2 3 4 4 5 5 5 3 1 1 1 2 3 5 5 6
8 17 12 14 13 nan nan nan 12 nan 12 nan nan nan nan nan nan nan nan nan nan 14 15 11 8 6 4 1 1 2 2 3 3 3 3 3 4 3 4 4 3 2 1 1 2 3 5 4 6
15 5 nan 14 25 13 11 10 nan 13 18 nan nan nan nan nan nan nan nan nan nan 13 10 11 9 6 5 4 5 6 5 5 4 3 3 4 5 5 5 4 4 4 2 1 2 3 4 4 3
11 6 17 13 nan 21 11 12 17 20 19 19 17 nan nan nan nan 12 17 16 nan 8 10 10 10 10 8 8 8 7 5 5 5 3 4 5 5 5 5 6 6 5 4 3 3 2 2 2 1
5 7 20 19 32 24 13 17 nan 25 14 19 21 14 3 8 9 10 8 nan 9 9 10 10 11 10 8 8 8 8 8 7 4 4 7 7 7 6 5 5 5 5 4 6 4 4 2 1 3
10 6 5 17 25 30 nan 25 23 30 21 22 24 15 2 9 8 8 8 9 11 10 10 9 11 11 10 11 11 9 8 7 7 8 7 8 8 9 8 8 6 5 5 4 2 3 2 2 2
10 10 17 27 14 18 29 nan 30 26 23 18 23 16 12 12 8 10 10 9 12 11 8 6 9 10 12 13 11 10 11 12 13 11 10 11 12 12 13 12 10 9 8 6 3 3 1 3 2
25 14 33 nan nan 19 28 nan nan 35 22 26 24 7 17 16 10 5 7 10 12 10 7 7 9 10 10 11 11 12 14 14 14 14 16 17 15 18 16 15 16 12 10 9 9 5 6 3 3
nan nan nan nan nan nan nan nan 30 37 33 24 5 18 21 24 20 13 6 11 12 4 6 7 9 11 10 11 13 13 15 15 17 18 19 18 16 20 19 20 25 19 17 13 14 13 14 8 6
nan nan nan nan nan nan 35 nan 31 33 32 14 31 23 23 25 19 18 10 10 7 6 6 8 10 11 10 10 10 10 13 13 15 17 18 16 17 18 12 20 18 18 18 14 14 16 13 10 11
nan nan nan nan nan nan nan nan nan 33 25 30 33 27 28 17 14 15 13 6 4 6 8 10 11 12 12 10 10 11 11 12 13 15 15 13 15 14 8 16 13 15 10 8 12 9 8 14 11
nan nan nan nan nan nan nan nan nan nan 25 32 31 35 23 17 14 9 6 2 4 6 10 9 11 10 11 8 10 12 10 11 9 12 15 11 9 7 7 12 14 13 13 11 6 10 14 13 11
nan nan nan nan nan nan nan nan nan nan 40 33 29 28 22 11 15 12 9 4 9 11 11 12 11 10 8 12 11 10 11 10 9 10 9 7 5 5 7 10 8 9 9 9 10 13 13 12 12
nan nan nan nan nan nan nan nan nan nan 36 33 29 23 7 4 13 8 7 7 8 11 11 8 12 9 11 10 8 7 7 6 7 4 9 7 4 6 5 5 5 7 6 8 11 12 11 10 12
nan nan nan nan nan nan nan nan nan nan 31 28 26 18 7 4 nan 2 7 5 8 10 11 7 8 8 9 7 7 7 6 7 5 8 9 8 8 7 7 6 7 8 13 13 10 7 6 8 7
nan nan nan nan nan nan nan nan nan nan 31 23 24 17 12 11 8 3 4 6 6 5 2 3 8 11 9 8 8 8 9 7 8 4 7 9 8 9 8 7 8 11 14 14 12 11 11 11 nan
nan nan nan nan nan nan nan nan nan nan 33 22 19 14 12 10 8 5 3 2 3 1 2 8 8 10 10 8 6 7 10 7 7 4 5 6 8 8 7 7 8 7 13 14 15 14 14 13 nan
nan nan nan nan nan nan nan nan nan nan nan nan 18 nan 9 nan 8 6 2 4 5 4 4 5 2 11 10 6 4 4 5 6 4 4 5 8 8 11 11 11 13 14 17 17 16 16 14 nan nan
nan nan nan nan nan nan nan nan nan nan nan nan nan nan nan nan nan 4 4 6 7 7 9 8 6 9 8 4 4 1 2 3 2 4 7 10 11 13 14 12 13 14 18 18 18 17 nan nan nan
nan nan nan nan nan nan nan nan nan nan nan nan nan nan nan nan nan 6 5 7 10 10 12 12 10 11 11 8 6 3 2 0 2 5 8 12 12 15 15 15 14 17 17 19 20 21 nan nan nan
nan nan nan nan nan nan nan nan nan nan 12 13 nan nan nan nan nan 8 10 9 9 12 13 14 13 12 12 12 7 3 5 3 4 5 8 11 15 15 14 13 13 16 18 20 21 nan nan nan nan
nan nan nan nan nan nan nan nan nan 15 18 12 nan nan nan nan nan nan 16 12 16 15 17 17 14 15 11 13 10 7 5 5 5 9 12 13 16 14 13 13 15 16 19 23 23 nan nan nan nan
nan nan nan nan nan nan nan nan 24 16 21 nan nan nan nan nan nan nan 22 23 21 23 23 23 21 18 15 12 11 8 7 6 6 7 11 11 11 11 12 13 17 19 21 23 nan nan nan nan nan
nan nan nan nan nan nan nan nan nan nan 31 16 19 27 nan nan nan nan 24 27 25 25 25 24 24 21 20 16 12 11 11 8 9 6 8 11 8 9 9 14 18 23 26 28 nan nan nan nan nan
nan nan nan nan nan nan nan nan nan nan nan 32 23 25 nan nan nan nan 18 20 24 24 25 27 29 24 21 19 14 13 11 11 13 7 7 7 5 6 12 16 20 24 25 26 nan nan nan nan nan
nan nan nan nan nan nan nan nan nan nan nan 31 34 36 nan nan nan nan nan 22 24 26 26 24 24 21 18 19 15 14 12 12 11 6 4 6 8 10 17 19 25 26 28 25 24 30 30 nan nan
nan nan nan nan nan nan nan nan nan nan 31 nan nan nan nan nan 25 8 nan nan 24 26 24 22 23 20 19 21 19 15 14 14 9 5 1 6 10 15 18 22 26 27 26 28 28 28 nan 32 nan
nan nan nan nan nan nan nan nan nan nan nan nan nan nan nan nan nan 21 16 19 27 28 25 22 22 25 23 22 21 15 12 8 5 5 1 6 9 17 21 25 25 26 28 28 28 29 33 35 31
nan nan nan nan nan nan nan nan nan nan 27 nan nan nan nan nan nan 11 28 36 32 22 22 20 18 22 20 21 21 21 13 11 7 3 4 12 10 16 24 26 26 26 28 30 33 36 38 39 nan
nan nan nan nan nan nan nan nan nan nan 30 nan nan nan nan nan nan 26 30 33 23 23 22 19 19 20 22 22 20 18 16 11 7 7 10 11 10 16 23 26 27 29 31 39 41 40 39 37 34
Wind_Direction
31 20 38 154 94 93 nan nan 222 nan 250 185 214 nan nan nan nan nan nan nan nan nan 55 48 33 5 319 255 239 247 253 241 204 273 274 282 326 338 327 333 345 229 172 178 109 88 68 68 45
50 27 119 61 76 nan nan nan 31 nan 329 nan nan nan nan nan nan nan nan nan nan 41 52 61 44 35 21 27 344 26 5 350 21 335 320 334 348 348 348 354 356 77 106 91 70 66 67 47 29
24 278 nan 85 34 47 37 17 nan 299 320 nan nan nan nan nan nan nan nan nan nan 29 47 49 30 39 25 14 28 37 27 15 23 17 6 16 30 35 34 21 36 39 54 74 66 60 60 50 33
35 176 135 78 nan 30 14 342 305 312 292 298 300 nan nan nan nan 26 11 17 nan 23 34 24 22 23 24 20 34 34 20 18 27 11 22 32 28 32 46 48 55 69 92 122 125 96 57 39 357
64 46 51 54 19 359 1 340 nan 309 290 280 288 301 250 290 346 353 5 nan 4 14 29 29 18 19 15 21 31 32 25 8 9 23 25 18 24 36 46 56 64 81 82 80 87 81 49 326 332
73 0 331 75 329 343 nan 304 310 302 309 302 292 303 325 342 2 360 8 18 343 357 11 26 14 23 24 28 32 37 32 30 39 47 35 31 24 27 30 33 51 68 95 95 44 45 49 360 27
98 180 135 111 307 336 331 nan 313 307 316 309 307 299 318 339 1 9 358 355 334 341 357 27 47 43 31 38 41 49 52 52 55 62 58 51 43 43 44 41 45 45 38 45 28 16 342 292 286
224 188 132 nan nan 329 330 nan nan 316 297 299 301 296 332 326 341 332 338 332 316 330 348 43 69 90 95 91 57 59 60 59 63 66 65 61 58 56 54 53 59 63 68 67 71 88 101 52 6
nan nan nan nan nan nan nan nan 305 310 312 311 347 308 321 325 325 311 323 297 295 353 18 53 79 90 92 98 83 67 59 64 66 66 66 71 71 70 64 70 71 66 67 80 80 78 85 90 89
nan nan nan nan nan nan 324 nan 320 307 311 334 315 322 312 329 323 297 292 292 332 24 33 51 71 77 80 81 89 89 82 85 80 72 72 76 80 79 65 81 79 73 68 89 89 73 72 53 42
nan nan nan nan nan nan nan nan nan 311 322 332 320 321 322 342 333 317 337 340 6 27 73 53 62 71 68 79 82 91 93 85 82 78 72 69 79 80 334 77 72 62 78 71 62 76 61 66 39
nan nan nan nan nan nan nan nan nan nan 330 321 330 322 333 338 332 336 338 353 0 80 84 73 67 68 70 70 76 76 85 81 73 72 70 74 94 102 45 50 56 62 50 18 44 44 69 62 23
nan nan nan nan nan nan nan nan nan nan 321 324 326 326 338 350 331 336 351 11 53 78 80 74 66 83 61 63 75 83 76 71 55 50 53 62 67 76 55 43 28 44 31 6 46 33 37 31 17
nan nan nan nan nan nan nan nan nan nan 322 326 327 329 326 330 350 354 4 24 67 93 77 60 65 59 51 75 61 81 74 47 42 41 49 35 9 24 12 43 21 46 16 8 22 35 16 18 4
nan nan nan nan nan nan nan nan nan nan 320 325 327 338 356 50 nan 354 350 33 82 87 90 33 53 72 67 65 76 87 89 84 42 42 41 30 10 353 357 14 18 12 7 346 352 357 354 5 359
nan nan nan nan nan nan nan nan nan nan 322 331 330 349 8 50 51 105 28 17 57 115 40 10 42 49 50 43 61 76 88 84 77 44 25 21 6 3 359 23 25 352 352 334 343 344 346 328 nan
nan nan nan nan nan nan nan nan nan nan 311 330 334 355 23 56 66 56 62 26 0 125 308 21 16 21 28 41 37 59 76 95 81 27 6 41 11 348 353 3 3 10 331 342 343 340 338 326 nan
nan nan nan nan nan nan nan nan nan nan nan nan 335 nan 14 nan 56 16 8 348 323 341 343 357 337 347 2 18 18 60 84 98 64 14 13 346 2 348 349 349 347 348 325 336 332 331 329 nan nan
nan nan nan nan nan nan nan nan nan nan nan nan nan nan nan nan nan 37 4 327 330 333 329 337 311 317 335 332 333 330 82 99 97 353 5 350 345 341 340 342 336 337 336 334 330 330 nan nan nan
nan nan nan nan nan nan nan nan nan nan nan nan nan nan nan nan nan 1 14 345 336 330 330 330 320 302 322 313 313 295 278 87 310 298 331 332 334 337 339 339 344 341 332 329 332 325 nan nan nan
nan nan nan nan nan nan nan nan nan nan 331 288 nan nan nan nan nan 348 354 350 340 341 333 332 328 313 313 300 298 260 244 227 266 314 313 340 339 331 336 348 336 342 332 327 325 nan nan nan nan
nan nan nan nan nan nan nan nan nan 325 352 5 nan nan nan nan nan nan 344 343 343 335 333 328 318 311 304 304 306 304 299 291 315 339 328 323 329 339 341 333 340 332 330 324 322 nan nan nan nan
nan nan nan nan nan nan nan nan 249 304 295 nan nan nan nan nan nan nan 340 343 339 328 328 323 324 310 314 309 300 306 294 310 300 291 314 321 331 334 332 347 350 343 345 336 nan nan nan nan nan
nan nan nan nan nan nan nan nan nan nan 310 297 303 330 nan nan nan nan 344 340 339 331 325 318 321 325 316 313 311 304 314 324 320 315 320 323 328 321 338 332 335 335 338 341 nan nan nan nan nan
nan nan nan nan nan nan nan nan nan nan nan 302 299 299 nan nan nan nan 333 344 334 331 324 313 311 315 312 316 311 323 310 310 335 331 333 339 351 316 333 328 329 336 339 346 nan nan nan nan nan
nan nan nan nan nan nan nan nan nan nan nan 305 313 279 nan nan nan nan nan 344 335 335 335 330 330 330 325 317 319 315 319 293 314 315 324 4 355 351 336 330 331 342 341 344 333 336 345 nan nan
nan nan nan nan nan nan nan nan nan nan 270 nan nan nan nan nan 268 297 nan nan 343 337 335 333 340 347 347 348 332 322 307 314 306 309 82 8 319 329 340 339 339 336 338 338 338 339 nan 342 nan
nan nan nan nan nan nan nan nan nan nan nan nan nan nan nan nan nan 294 333 332 352 338 324 325 343 346 350 357 1 344 338 339 311 257 354 335 321 310 338 341 339 343 343 342 343 338 337 339 337
nan nan nan nan nan nan nan nan nan nan 291 nan nan nan nan nan nan 7 340 317 332 325 315 320 338 343 346 353 8 8 360 350 330 6 330 311 323 317 334 345 348 356 352 351 346 344 337 335 nan
nan nan nan nan nan nan nan nan nan nan 285 nan nan nan nan nan nan 357 310 315 315 319 319 323 322 340 341 343 357 3 360 346 350 18 337 329 315 335 342 346 355 360 359 355 355 348 343 339 329